User: anonymous   Login
Location: Unspecified
(0.0000°N, 0.0000°E)
Time: 18:34:46
(UTC+01:00)
Language:

SJ-6B - Orbit

View from above orbital plane
View from above orbital plane
View from above satellite
View from above satellite

Ground track
Ground track

The orbit data is extracted from the following two-line orbital elements,

1 28415U 04035C   17322.67157458 +.00000163 +00000-0 +15301-4 0  9994
2 28415 097.7321 352.5189 0051028 318.1666 041.5665 15.06361186721836
Epoch (UTC): 18 November 2017 16:07:04
Eccentricity: 0.0051028
inclination: 97.7321°
perigee height: 512 km
apogee height: 582 km
right ascension of ascending node: 352.5189°
argument of perigee: 318.1666°
revolutions per day: 15.06361186
mean anomaly at epoch: 41.5665°
orbit number at epoch: 72183

The dashed part of the orbit path shows where the satellite is in the earth's shadow,  

DLR